Location: ?????????
(53.2086°N, 54.0693°E)
Time: 22:59:05
(UTC+00:00)

SMAP - Pass Details

Date: 08 December 2019
Orbit: 681 x 684 km, 98.1° (Epoch: 24 January)

Event Time Altitude Azimuth Distance (km) Brightness Sun altitude
Rises 12:43:54 0° 138° (SE) 3,041 6.3 -5.4°
Reaches altitude 10° 12:46:15 10° 130° (SE) 2,129 5.4 -5.7°
Maximum altitude 12:50:30 37° 64° (ENE) 1,072 3.6 -6.3°
Drops below altitude 10° 12:54:48 10° 358° (N) 2,143 5.4 -6.8°
Sets 12:57:10 0° 351° (N) 3,063 6.2 -7.1°
